{"data":{"norad_id":54846,"intl_designator":"2022-177AC","name":"STARLINK-5360","alt_names":[],"object_type":"PAYLOAD","status":"ACTIVE","operator":null,"country":"US","launch_date":"2022-12-28","launch_site_code":"AFETR","launch_vehicle":null,"mission":null,"orbit_class":"UNKNOWN","rcs_meters":null,"size_class":null,"mass_kg":null,"dimensions":null,"purposes":["comms"],"wikipedia_slug":null,"has_3d_model":false,"image_url":null,"decayed_at":null,"tle_current":{"epoch":"2026-09-20T06:44:02.189760Z","epoch_age_seconds":111659,"freshness":"FRESH","line1":"1 54846U 22177AC  26263.28058090  .00000010  00000+0  98778-5 0  9991","line2":"2 54846  43.0026 113.6872 0000998 250.9840 109.0904 15.27574000206727","mean_motion":15.27574,"eccentricity":9.98e-5,"inclination_deg":43.0026,"raan_deg":113.6872,"arg_perigee_deg":250.984,"mean_anomaly_deg":109.0904,"bstar":9.8778e-6,"rev_number":20672,"period_min":94.267118974269,"perigee_km":482.38231409153,"apogee_km":483.75181042236,"semimajor_km":6861.2040622569,"source":"CELESTRAK","updated_at":"2026-09-21T09:00:33.137174Z"}}}